Find Starlink 34617

NORAD ID: 65015 Int'l Des: 2025-161 Owner: SPXS Country: US Constellation: starlink operational
LEOCIRCULAR

实时位置

正在加载3D地球...

关于 Starlink 34617

正在加载描述...

即将过境

Passes for default location (London). Set your location on the main map for personalized predictions.

高度历史

Loading altitude history...

两行轨道根数

1 65015U 25161A 26106.75042097 .00008860 00000-0 31092-3 0 9991
2 65015 53.1585 117.6626 0001304 80.4128 279.7020 15.30199295 40056
Epoch: Apr 16, 2026 • Age: 13 hours

当前状态

高度 475.2 km
速度 7.63 km/s
星下点 20.18°N, 174.22°W
发射日期 Jul 30, 2025
运行时间 0.7 years
类型 internet

技术详情

分类 Payload
质量 575.00 kg
干质量 530.00 kg
总质量 575.00 kg
长度 0.30 m
直径 4.10 m
跨度 29.00 m
形状 Box + pan
制造商 SPXS
平台类型 Starlink V2MO
阶段状态 In Orbit
所有者/国家 SPXS/US

Most Searched